Retour au catalogue

STARLINK-32034

ActifCommunicationsVLEO
NORAD 60297·PAYLOAD·🇺🇸 United States

Lancé Jul 28, 2024 depuis Cape Canaveral Space Force Station

Loading…

Prochains Passages (prochaines 24 heures)

TLE

FraisSource: CelesTrak SupGP

Époque: Sep 14, 2026, 20:52 UTC

1 60297C 24132V   26257.86993056  .00053586  00000+0  17233-2 0  2575
2 60297  53.1574 252.2887 0001222  95.7806 304.2012 15.31672364    18

Suivez STARLINK-32034 en temps réel avec AllMySat

Download on the App Store